owner,sensor,date,latitude,longitude,vertical_datum,sea_water_practical_salinity,qcFlag 
ENP,ioos.station.NOAA.NDBC:BOBF1:1,2019-05-01T00:00:00Z,25.0270,-80.6810,1.5,39.44,11111222 
ENP,ioos.station.NOAA.NDBC:BOBF1:1,2019-05-01T01:00:00Z,25.0270,-80.6810,1.5,39.47,11111222 
ENP,ioos.station.NOAA.NDBC:BOBF1:1,2019-05-01T02:00:00Z,25.0270,-80.6810,1.5,39.46,11111222 
ENP,ioos.station.NOAA.NDBC:BOBF1:1,2019-05-01T04:00:00Z,25.0270,-80.6810,1.5,39.34,11111222 
ENP,ioos.station.NOAA.NDBC:BOBF1:1,2019-05-01T05:00:00Z,25.0270,-80.6810,1.5,39.26,11111222 
ENP,ioos.station.NOAA.NDBC:BOBF1:1,2019-05-01T09:00:00Z,25.0270,-80.6810,1.5,39.35,11111222 
ENP,ioos.station.NOAA.NDBC:BOBF1:1,2019-05-01T10:00:00Z,25.0270,-80.6810,1.5,39.32,11111222 
ENP,ioos.station.NOAA.NDBC:BOBF1:1,2019-05-01T11:00:00Z,25.0270,-80.6810,1.5,39.34,11111222 
ENP,ioos.station.NOAA.NDBC:BOBF1:1,2019-05-01T12:00:00Z,25.0270,-80.6810,1.5,39.38,11111222 
ENP,ioos.station.NOAA.NDBC:BOBF1:1,2019-05-01T13:00:00Z,25.0270,-80.6810,1.5,39.33,11111222 
ENP,ioos.station.NOAA.NDBC:BOBF1:1,2019-05-01T14:00:00Z,25.0270,-80.6810,1.5,39.39,11111222 
ENP,ioos.station.NOAA.NDBC:BOBF1:1,2019-05-01T15:00:00Z,25.0270,-80.6810,1.5,39.45,11111222 
ENP,ioos.station.NOAA.NDBC:BOBF1:1,2019-05-01T16:00:00Z,25.0270,-80.6810,1.5,39.6,11111222 
ENP,ioos.station.NOAA.NDBC:BOBF1:1,2019-05-01T17:00:00Z,25.0270,-80.6810,1.5,39.53,11111222 
ENP,ioos.station.NOAA.NDBC:BOBF1:1,2019-05-01T18:00:00Z,25.0270,-80.6810,1.5,39.69,11111222 
ENP,ioos.station.NOAA.NDBC:BOBF1:1,2019-05-01T19:00:00Z,25.0270,-80.6810,1.5,39.61,11111222 
ENP,ioos.station.NOAA.NDBC:BOBF1:1,2019-05-01T20:00:00Z,25.0270,-80.6810,1.5,39.47,11111222 
ENP,ioos.station.NOAA.NDBC:BOBF1:1,2019-05-01T21:00:00Z,25.0270,-80.6810,1.5,39.49,11111222 
ENP,ioos.station.NOAA.NDBC:BOBF1:1,2019-05-01T22:00:00Z,25.0270,-80.6810,1.5,39.38,11111222 
ENP,ioos.station.NOAA.NDBC:BOBF1:1,2019-05-01T23:00:00Z,25.0270,-80.6810,1.5,39.48,11111222 
ENP,ioos.station.NOAA.NDBC:BOBF1:1,2019-05-02T00:00:00Z,25.0270,-80.6810,1.5,39.5,11111222 
ENP,ioos.station.NOAA.NDBC:BOBF1:1,2019-05-02T01:00:00Z,25.0270,-80.6810,1.5,39.58,11111222 
ENP,ioos.station.NOAA.NDBC:BOBF1:1,2019-05-02T02:00:00Z,25.0270,-80.6810,1.5,39.78,11111222 
ENP,ioos.station.NOAA.NDBC:BOBF1:1,2019-05-02T04:00:00Z,25.0270,-80.6810,1.5,40.02,11111222 
ENP,ioos.station.NOAA.NDBC:BOBF1:1,2019-05-02T05:00:00Z,25.0270,-80.6810,1.5,40.29,11111222 
ENP,ioos.station.NOAA.NDBC:BOBF1:1,2019-05-02T08:00:00Z,25.0270,-80.6810,1.5,40.34,11111222 
ENP,ioos.station.NOAA.NDBC:BOBF1:1,2019-05-02T09:00:00Z,25.0270,-80.6810,1.5,40.33,11111222 
ENP,ioos.station.NOAA.NDBC:BOBF1:1,2019-05-02T10:00:00Z,25.0270,-80.6810,1.5,40.41,11111222 
ENP,ioos.station.NOAA.NDBC:BOBF1:1,2019-05-02T11:00:00Z,25.0270,-80.6810,1.5,40.39,11111222 
ENP,ioos.station.NOAA.NDBC:BOBF1:1,2019-05-02T12:00:00Z,25.0270,-80.6810,1.5,40.5,11111222 
ENP,ioos.station.NOAA.NDBC:BOBF1:1,2019-05-02T13:00:00Z,25.0270,-80.6810,1.5,40.42,11111222 
ENP,ioos.station.NOAA.NDBC:BOBF1:1,2019-05-02T14:00:00Z,25.0270,-80.6810,1.5,40.4,11111222 
ENP,ioos.station.NOAA.NDBC:BOBF1:1,2019-05-02T15:00:00Z,25.0270,-80.6810,1.5,40.4,11111222 
ENP,ioos.station.NOAA.NDBC:BOBF1:1,2019-05-02T16:00:00Z,25.0270,-80.6810,1.5,40.33,11111222 
ENP,ioos.station.NOAA.NDBC:BOBF1:1,2019-05-02T17:00:00Z,25.0270,-80.6810,1.5,40.33,11111222 
ENP,ioos.station.NOAA.NDBC:BOBF1:1,2019-05-02T18:00:00Z,25.0270,-80.6810,1.5,40.34,11111222 
ENP,ioos.station.NOAA.NDBC:BOBF1:1,2019-05-02T19:00:00Z,25.0270,-80.6810,1.5,40.22,11111222 
ENP,ioos.station.NOAA.NDBC:BOBF1:1,2019-05-02T20:00:00Z,25.0270,-80.6810,1.5,40.14,11111222 
ENP,ioos.station.NOAA.NDBC:BOBF1:1,2019-05-02T21:00:00Z,25.0270,-80.6810,1.5,40.11,11111222 
ENP,ioos.station.NOAA.NDBC:BOBF1:1,2019-05-02T22:00:00Z,25.0270,-80.6810,1.5,40.18,11111222 
ENP,ioos.station.NOAA.NDBC:BOBF1:1,2019-05-02T23:00:00Z,25.0270,-80.6810,1.5,40.28,11111222 
ENP,ioos.station.NOAA.NDBC:BOBF1:1,2019-05-03T00:00:00Z,25.0270,-80.6810,1.5,40.21,11111222 
ENP,ioos.station.NOAA.NDBC:BOBF1:1,2019-05-03T01:00:00Z,25.0270,-80.6810,1.5,40.28,11111222 
ENP,ioos.station.NOAA.NDBC:BOBF1:1,2019-05-03T02:00:00Z,25.0270,-80.6810,1.5,40.41,11111222 
ENP,ioos.station.NOAA.NDBC:BOBF1:1,2019-05-03T04:00:00Z,25.0270,-80.6810,1.5,40.35,11111222 
ENP,ioos.station.NOAA.NDBC:BOBF1:1,2019-05-03T05:00:00Z,25.0270,-80.6810,1.5,40.32,11111222 
ENP,ioos.station.NOAA.NDBC:BOBF1:1,2019-05-03T11:00:00Z,25.0270,-80.6810,1.5,40.68,11111222 
ENP,ioos.station.NOAA.NDBC:BOBF1:1,2019-05-03T12:00:00Z,25.0270,-80.6810,1.5,40.43,11111222 
ENP,ioos.station.NOAA.NDBC:BOBF1:1,2019-05-03T13:00:00Z,25.0270,-80.6810,1.5,40.4,11111222 
ENP,ioos.station.NOAA.NDBC:BOBF1:1,2019-05-03T16:00:00Z,25.0270,-80.6810,1.5,40.46,11111222 
ENP,ioos.station.NOAA.NDBC:BOBF1:1,2019-05-03T17:00:00Z,25.0270,-80.6810,1.5,40.64,11111222 
ENP,ioos.station.NOAA.NDBC:BOBF1:1,2019-05-03T19:00:00Z,25.0270,-80.6810,1.5,40.32,11111222 
ENP,ioos.station.NOAA.NDBC:BOBF1:1,2019-05-03T20:00:00Z,25.0270,-80.6810,1.5,40.3,11111222 
ENP,ioos.station.NOAA.NDBC:BOBF1:1,2019-05-03T21:00:00Z,25.0270,-80.6810,1.5,40.29,11111222 
ENP,ioos.station.NOAA.NDBC:BOBF1:1,2019-05-03T22:00:00Z,25.0270,-80.6810,1.5,40.2,11111222 
ENP,ioos.station.NOAA.NDBC:BOBF1:1,2019-05-04T00:00:00Z,25.0270,-80.6810,1.5,40.24,11111222 
ENP,ioos.station.NOAA.NDBC:BOBF1:1,2019-05-04T01:00:00Z,25.0270,-80.6810,1.5,40.28,11111222 
ENP,ioos.station.NOAA.NDBC:BOBF1:1,2019-05-04T02:00:00Z,25.0270,-80.6810,1.5,40.29,11111222 
ENP,ioos.station.NOAA.NDBC:BOBF1:1,2019-05-04T04:00:00Z,25.0270,-80.6810,1.5,40.37,11111222 
ENP,ioos.station.NOAA.NDBC:BOBF1:1,2019-05-04T05:00:00Z,25.0270,-80.6810,1.5,40.47,11111222 
ENP,ioos.station.NOAA.NDBC:BOBF1:1,2019-05-04T06:00:00Z,25.0270,-80.6810,1.5,40.39,11111222 
ENP,ioos.station.NOAA.NDBC:BOBF1:1,2019-05-04T07:00:00Z,25.0270,-80.6810,1.5,40.47,11111222 
ENP,ioos.station.NOAA.NDBC:BOBF1:1,2019-05-04T08:00:00Z,25.0270,-80.6810,1.5,40.4,11111222 
ENP,ioos.station.NOAA.NDBC:BOBF1:1,2019-05-04T09:00:00Z,25.0270,-80.6810,1.5,40.45,11111222 
ENP,ioos.station.NOAA.NDBC:BOBF1:1,2019-05-04T10:00:00Z,25.0270,-80.6810,1.5,40.48,11111222 
ENP,ioos.station.NOAA.NDBC:BOBF1:1,2019-05-04T11:00:00Z,25.0270,-80.6810,1.5,40.33,11111222 
ENP,ioos.station.NOAA.NDBC:BOBF1:1,2019-05-04T12:00:00Z,25.0270,-80.6810,1.5,40.36,11111222 
ENP,ioos.station.NOAA.NDBC:BOBF1:1,2019-05-04T13:00:00Z,25.0270,-80.6810,1.5,40.34,11111222 
ENP,ioos.station.NOAA.NDBC:BOBF1:1,2019-05-04T14:00:00Z,25.0270,-80.6810,1.5,40.37,11111222 
ENP,ioos.station.NOAA.NDBC:BOBF1:1,2019-05-04T15:00:00Z,25.0270,-80.6810,1.5,40.33,11111222 
ENP,ioos.station.NOAA.NDBC:BOBF1:1,2019-05-04T16:00:00Z,25.0270,-80.6810,1.5,40.48,11111222 
ENP,ioos.station.NOAA.NDBC:BOBF1:1,2019-05-04T17:00:00Z,25.0270,-80.6810,1.5,40.39,11111222 
ENP,ioos.station.NOAA.NDBC:BOBF1:1,2019-05-04T20:00:00Z,25.0270,-80.6810,1.5,40.34,11111222 
ENP,ioos.station.NOAA.NDBC:BOBF1:1,2019-05-04T21:00:00Z,25.0270,-80.6810,1.5,40.31,11111222 
ENP,ioos.station.NOAA.NDBC:BOBF1:1,2019-05-04T22:00:00Z,25.0270,-80.6810,1.5,40.28,11111222 
ENP,ioos.station.NOAA.NDBC:BOBF1:1,2019-05-04T23:00:00Z,25.0270,-80.6810,1.5,40.39,11111222 
ENP,ioos.station.NOAA.NDBC:BOBF1:1,2019-05-05T00:00:00Z,25.0270,-80.6810,1.5,40.42,11111222 
ENP,ioos.station.NOAA.NDBC:BOBF1:1,2019-05-05T01:00:00Z,25.0270,-80.6810,1.5,40.52,11111222 
ENP,ioos.station.NOAA.NDBC:BOBF1:1,2019-05-05T02:00:00Z,25.0270,-80.6810,1.5,40.51,11111222 
ENP,ioos.station.NOAA.NDBC:BOBF1:1,2019-05-05T04:00:00Z,25.0270,-80.6810,1.5,40.52,11111222 
ENP,ioos.station.NOAA.NDBC:BOBF1:1,2019-05-05T05:00:00Z,25.0270,-80.6810,1.5,40.46,11111222 
ENP,ioos.station.NOAA.NDBC:BOBF1:1,2019-05-05T06:00:00Z,25.0270,-80.6810,1.5,40.53,11111222 
ENP,ioos.station.NOAA.NDBC:BOBF1:1,2019-05-05T07:00:00Z,25.0270,-80.6810,1.5,40.54,11111222 
ENP,ioos.station.NOAA.NDBC:BOBF1:1,2019-05-05T08:00:00Z,25.0270,-80.6810,1.5,40.53,11111222 
ENP,ioos.station.NOAA.NDBC:BOBF1:1,2019-05-05T09:00:00Z,25.0270,-80.6810,1.5,40.68,11111222 
ENP,ioos.station.NOAA.NDBC:BOBF1:1,2019-05-05T10:00:00Z,25.0270,-80.6810,1.5,40.69,11111222 
ENP,ioos.station.NOAA.NDBC:BOBF1:1,2019-05-05T11:00:00Z,25.0270,-80.6810,1.5,40.7,11111222 
ENP,ioos.station.NOAA.NDBC:BOBF1:1,2019-05-05T12:00:00Z,25.0270,-80.6810,1.5,40.73,11111222 
ENP,ioos.station.NOAA.NDBC:BOBF1:1,2019-05-05T13:00:00Z,25.0270,-80.6810,1.5,40.75,11111222 
ENP,ioos.station.NOAA.NDBC:BOBF1:1,2019-05-05T14:00:00Z,25.0270,-80.6810,1.5,40.61,11111222 
ENP,ioos.station.NOAA.NDBC:BOBF1:1,2019-05-05T15:00:00Z,25.0270,-80.6810,1.5,40.6,11111222 
ENP,ioos.station.NOAA.NDBC:BOBF1:1,2019-05-05T16:00:00Z,25.0270,-80.6810,1.5,40.56,11111222 
ENP,ioos.station.NOAA.NDBC:BOBF1:1,2019-05-05T17:00:00Z,25.0270,-80.6810,1.5,40.44,11111222 
ENP,ioos.station.NOAA.NDBC:BOBF1:1,2019-05-05T20:00:00Z,25.0270,-80.6810,1.5,40.42,11111222 
ENP,ioos.station.NOAA.NDBC:BOBF1:1,2019-05-05T21:00:00Z,25.0270,-80.6810,1.5,40.48,11111222 
ENP,ioos.station.NOAA.NDBC:BOBF1:1,2019-05-05T22:00:00Z,25.0270,-80.6810,1.5,40.49,11111222 
ENP,ioos.station.NOAA.NDBC:BOBF1:1,2019-05-05T23:00:00Z,25.0270,-80.6810,1.5,40.39,11111222 
ENP,ioos.station.NOAA.NDBC:BOBF1:1,2019-05-06T00:00:00Z,25.0270,-80.6810,1.5,40.55,11111222 
ENP,ioos.station.NOAA.NDBC:BOBF1:1,2019-05-06T01:00:00Z,25.0270,-80.6810,1.5,40.49,11111222 
ENP,ioos.station.NOAA.NDBC:BOBF1:1,2019-05-06T02:00:00Z,25.0270,-80.6810,1.5,40.55,11111222 
ENP,ioos.station.NOAA.NDBC:BOBF1:1,2019-05-06T04:00:00Z,25.0270,-80.6810,1.5,40.35,11111222 
ENP,ioos.station.NOAA.NDBC:BOBF1:1,2019-05-06T05:00:00Z,25.0270,-80.6810,1.5,40.33,11111222 
ENP,ioos.station.NOAA.NDBC:BOBF1:1,2019-05-06T06:00:00Z,25.0270,-80.6810,1.5,40.45,11111222 
ENP,ioos.station.NOAA.NDBC:BOBF1:1,2019-05-06T07:00:00Z,25.0270,-80.6810,1.5,40.48,11111222 
ENP,ioos.station.NOAA.NDBC:BOBF1:1,2019-05-06T08:00:00Z,25.0270,-80.6810,1.5,40.37,11111222 
ENP,ioos.station.NOAA.NDBC:BOBF1:1,2019-05-06T09:00:00Z,25.0270,-80.6810,1.5,40.42,11111222 
ENP,ioos.station.NOAA.NDBC:BOBF1:1,2019-05-06T10:00:00Z,25.0270,-80.6810,1.5,40.49,11111222 
ENP,ioos.station.NOAA.NDBC:BOBF1:1,2019-05-06T11:00:00Z,25.0270,-80.6810,1.5,40.48,11111222 
ENP,ioos.station.NOAA.NDBC:BOBF1:1,2019-05-06T12:00:00Z,25.0270,-80.6810,1.5,40.43,11111222 
ENP,ioos.station.NOAA.NDBC:BOBF1:1,2019-05-06T13:00:00Z,25.0270,-80.6810,1.5,40.42,11111222 
ENP,ioos.station.NOAA.NDBC:BOBF1:1,2019-05-06T14:00:00Z,25.0270,-80.6810,1.5,40.54,11111222 
ENP,ioos.station.NOAA.NDBC:BOBF1:1,2019-05-06T15:00:00Z,25.0270,-80.6810,1.5,40.66,11111222 
ENP,ioos.station.NOAA.NDBC:BOBF1:1,2019-05-06T16:00:00Z,25.0270,-80.6810,1.5,40.61,11111222 
ENP,ioos.station.NOAA.NDBC:BOBF1:1,2019-05-06T17:00:00Z,25.0270,-80.6810,1.5,40.58,11111222 
ENP,ioos.station.NOAA.NDBC:BOBF1:1,2019-05-06T18:00:00Z,25.0270,-80.6810,1.5,40.53,11111222 
ENP,ioos.station.NOAA.NDBC:BOBF1:1,2019-05-06T19:00:00Z,25.0270,-80.6810,1.5,40.51,11111222 
ENP,ioos.station.NOAA.NDBC:BOBF1:1,2019-05-06T20:00:00Z,25.0270,-80.6810,1.5,40.49,11111222 
ENP,ioos.station.NOAA.NDBC:BOBF1:1,2019-05-06T21:00:00Z,25.0270,-80.6810,1.5,40.52,11111222 
ENP,ioos.station.NOAA.NDBC:BOBF1:1,2019-05-06T22:00:00Z,25.0270,-80.6810,1.5,40.44,11111222 
ENP,ioos.station.NOAA.NDBC:BOBF1:1,2019-05-06T23:00:00Z,25.0270,-80.6810,1.5,40.43,11111222 
ENP,ioos.station.NOAA.NDBC:BOBF1:1,2019-05-07T00:00:00Z,25.0270,-80.6810,1.5,40.55,11111222 
ENP,ioos.station.NOAA.NDBC:BOBF1:1,2019-05-07T02:00:00Z,25.0270,-80.6810,1.5,40.48,11111222 
ENP,ioos.station.NOAA.NDBC:BOBF1:1,2019-05-07T04:00:00Z,25.0270,-80.6810,1.5,40.42,11111222 
ENP,ioos.station.NOAA.NDBC:BOBF1:1,2019-05-07T05:00:00Z,25.0270,-80.6810,1.5,40.41,11111222 
ENP,ioos.station.NOAA.NDBC:BOBF1:1,2019-05-07T06:00:00Z,25.0270,-80.6810,1.5,40.42,11111222 
ENP,ioos.station.NOAA.NDBC:BOBF1:1,2019-05-07T07:00:00Z,25.0270,-80.6810,1.5,40.42,11111222 
ENP,ioos.station.NOAA.NDBC:BOBF1:1,2019-05-07T08:00:00Z,25.0270,-80.6810,1.5,40.48,11111222 
ENP,ioos.station.NOAA.NDBC:BOBF1:1,2019-05-07T09:00:00Z,25.0270,-80.6810,1.5,40.47,11111222 
ENP,ioos.station.NOAA.NDBC:BOBF1:1,2019-05-07T10:00:00Z,25.0270,-80.6810,1.5,40.44,11111222 
ENP,ioos.station.NOAA.NDBC:BOBF1:1,2019-05-07T11:00:00Z,25.0270,-80.6810,1.5,40.41,11111222 
ENP,ioos.station.NOAA.NDBC:BOBF1:1,2019-05-07T12:00:00Z,25.0270,-80.6810,1.5,40.42,11111222 
ENP,ioos.station.NOAA.NDBC:BOBF1:1,2019-05-07T13:00:00Z,25.0270,-80.6810,1.5,40.4,11111222 
ENP,ioos.station.NOAA.NDBC:BOBF1:1,2019-05-07T14:00:00Z,25.0270,-80.6810,1.5,40.41,11111222 
ENP,ioos.station.NOAA.NDBC:BOBF1:1,2019-05-07T15:00:00Z,25.0270,-80.6810,1.5,40.41,11111222 
ENP,ioos.station.NOAA.NDBC:BOBF1:1,2019-05-07T16:00:00Z,25.0270,-80.6810,1.5,40.52,11111222 
ENP,ioos.station.NOAA.NDBC:BOBF1:1,2019-05-07T17:00:00Z,25.0270,-80.6810,1.5,40.48,11111222 
ENP,ioos.station.NOAA.NDBC:BOBF1:1,2019-05-07T18:00:00Z,25.0270,-80.6810,1.5,40.55,11111222 
ENP,ioos.station.NOAA.NDBC:BOBF1:1,2019-05-07T19:00:00Z,25.0270,-80.6810,1.5,40.49,11111222 
ENP,ioos.station.NOAA.NDBC:BOBF1:1,2019-05-07T20:00:00Z,25.0270,-80.6810,1.5,40.55,11111222 
ENP,ioos.station.NOAA.NDBC:BOBF1:1,2019-05-07T21:00:00Z,25.0270,-80.6810,1.5,40.47,11111222 
ENP,ioos.station.NOAA.NDBC:BOBF1:1,2019-05-07T22:00:00Z,25.0270,-80.6810,1.5,40.49,11111222 
ENP,ioos.station.NOAA.NDBC:BOBF1:1,2019-05-07T23:00:00Z,25.0270,-80.6810,1.5,40.48,11111222 
ENP,ioos.station.NOAA.NDBC:BOBF1:1,2019-05-08T00:00:00Z,25.0270,-80.6810,1.5,40.46,11111222 
ENP,ioos.station.NOAA.NDBC:BOBF1:1,2019-05-08T01:00:00Z,25.0270,-80.6810,1.5,40.45,11111222 
ENP,ioos.station.NOAA.NDBC:BOBF1:1,2019-05-08T02:00:00Z,25.0270,-80.6810,1.5,40.42,11111222 
ENP,ioos.station.NOAA.NDBC:BOBF1:1,2019-05-08T04:00:00Z,25.0270,-80.6810,1.5,40.45,11111222 
ENP,ioos.station.NOAA.NDBC:BOBF1:1,2019-05-08T05:00:00Z,25.0270,-80.6810,1.5,40.45,11111222 
ENP,ioos.station.NOAA.NDBC:BOBF1:1,2019-05-08T06:00:00Z,25.0270,-80.6810,1.5,40.45,11111222 
ENP,ioos.station.NOAA.NDBC:BOBF1:1,2019-05-08T07:00:00Z,25.0270,-80.6810,1.5,40.48,11111222 
ENP,ioos.station.NOAA.NDBC:BOBF1:1,2019-05-08T08:00:00Z,25.0270,-80.6810,1.5,40.48,11111222 
ENP,ioos.station.NOAA.NDBC:BOBF1:1,2019-05-08T09:00:00Z,25.0270,-80.6810,1.5,40.55,11111222 
ENP,ioos.station.NOAA.NDBC:BOBF1:1,2019-05-08T10:00:00Z,25.0270,-80.6810,1.5,40.55,11111222 
ENP,ioos.station.NOAA.NDBC:BOBF1:1,2019-05-08T11:00:00Z,25.0270,-80.6810,1.5,40.57,11111222 
ENP,ioos.station.NOAA.NDBC:BOBF1:1,2019-05-08T12:00:00Z,25.0270,-80.6810,1.5,40.55,11111222 
ENP,ioos.station.NOAA.NDBC:BOBF1:1,2019-05-08T13:00:00Z,25.0270,-80.6810,1.5,40.54,11111222 
ENP,ioos.station.NOAA.NDBC:BOBF1:1,2019-05-08T14:00:00Z,25.0270,-80.6810,1.5,40.49,11111222 
ENP,ioos.station.NOAA.NDBC:BOBF1:1,2019-05-08T15:00:00Z,25.0270,-80.6810,1.5,40.48,11111222 
ENP,ioos.station.NOAA.NDBC:BOBF1:1,2019-05-08T16:00:00Z,25.0270,-80.6810,1.5,40.48,11111222 
ENP,ioos.station.NOAA.NDBC:BOBF1:1,2019-05-08T17:00:00Z,25.0270,-80.6810,1.5,40.55,11111222 
ENP,ioos.station.NOAA.NDBC:BOBF1:1,2019-05-08T18:00:00Z,25.0270,-80.6810,1.5,40.55,11111222 
ENP,ioos.station.NOAA.NDBC:BOBF1:1,2019-05-08T19:00:00Z,25.0270,-80.6810,1.5,40.55,11111222 
ENP,ioos.station.NOAA.NDBC:BOBF1:1,2019-05-08T20:00:00Z,25.0270,-80.6810,1.5,40.58,11111222 
ENP,ioos.station.NOAA.NDBC:BOBF1:1,2019-05-08T21:00:00Z,25.0270,-80.6810,1.5,40.59,11111222 
ENP,ioos.station.NOAA.NDBC:BOBF1:1,2019-05-08T22:00:00Z,25.0270,-80.6810,1.5,40.61,11111222 
ENP,ioos.station.NOAA.NDBC:BOBF1:1,2019-05-08T23:00:00Z,25.0270,-80.6810,1.5,40.63,11111222 
ENP,ioos.station.NOAA.NDBC:BOBF1:1,2019-05-09T00:00:00Z,25.0270,-80.6810,1.5,40.7,11111222 
ENP,ioos.station.NOAA.NDBC:BOBF1:1,2019-05-09T02:00:00Z,25.0270,-80.6810,1.5,40.74,11111222 
ENP,ioos.station.NOAA.NDBC:BOBF1:1,2019-05-09T04:00:00Z,25.0270,-80.6810,1.5,40.69,11111222 
ENP,ioos.station.NOAA.NDBC:BOBF1:1,2019-05-09T05:00:00Z,25.0270,-80.6810,1.5,40.67,11111222 
ENP,ioos.station.NOAA.NDBC:BOBF1:1,2019-05-09T06:00:00Z,25.0270,-80.6810,1.5,40.64,11111222 
ENP,ioos.station.NOAA.NDBC:BOBF1:1,2019-05-09T07:00:00Z,25.0270,-80.6810,1.5,40.65,11111222 
ENP,ioos.station.NOAA.NDBC:BOBF1:1,2019-05-09T08:00:00Z,25.0270,-80.6810,1.5,40.66,11111222 
ENP,ioos.station.NOAA.NDBC:BOBF1:1,2019-05-09T09:00:00Z,25.0270,-80.6810,1.5,40.77,11111222 
ENP,ioos.station.NOAA.NDBC:BOBF1:1,2019-05-09T10:00:00Z,25.0270,-80.6810,1.5,40.88,11111222 
ENP,ioos.station.NOAA.NDBC:BOBF1:1,2019-05-09T11:00:00Z,25.0270,-80.6810,1.5,40.86,11111222 
ENP,ioos.station.NOAA.NDBC:BOBF1:1,2019-05-09T12:00:00Z,25.0270,-80.6810,1.5,40.84,11111222 
ENP,ioos.station.NOAA.NDBC:BOBF1:1,2019-05-09T13:00:00Z,25.0270,-80.6810,1.5,40.78,11111222 
ENP,ioos.station.NOAA.NDBC:BOBF1:1,2019-05-09T14:00:00Z,25.0270,-80.6810,1.5,40.72,11111222 
ENP,ioos.station.NOAA.NDBC:BOBF1:1,2019-05-09T15:00:00Z,25.0270,-80.6810,1.5,40.67,11111222 
ENP,ioos.station.NOAA.NDBC:BOBF1:1,2019-05-09T16:00:00Z,25.0270,-80.6810,1.5,40.66,11111222 
ENP,ioos.station.NOAA.NDBC:BOBF1:1,2019-05-09T18:00:00Z,25.0270,-80.6810,1.5,40.94,11111222 
ENP,ioos.station.NOAA.NDBC:BOBF1:1,2019-05-09T19:00:00Z,25.0270,-80.6810,1.5,40.98,11111222 
ENP,ioos.station.NOAA.NDBC:BOBF1:1,2019-05-09T20:00:00Z,25.0270,-80.6810,1.5,41.03,11111222 
ENP,ioos.station.NOAA.NDBC:BOBF1:1,2019-05-09T21:00:00Z,25.0270,-80.6810,1.5,41.04,11111222 
ENP,ioos.station.NOAA.NDBC:BOBF1:1,2019-05-09T22:00:00Z,25.0270,-80.6810,1.5,41.08,11111222 
ENP,ioos.station.NOAA.NDBC:BOBF1:1,2019-05-09T23:00:00Z,25.0270,-80.6810,1.5,41.08,11111222 
ENP,ioos.station.NOAA.NDBC:BOBF1:1,2019-05-10T00:00:00Z,25.0270,-80.6810,1.5,41.06,11111222 
ENP,ioos.station.NOAA.NDBC:BOBF1:1,2019-05-10T01:00:00Z,25.0270,-80.6810,1.5,41.06,11111222 
ENP,ioos.station.NOAA.NDBC:BOBF1:1,2019-05-10T04:00:00Z,25.0270,-80.6810,1.5,41.08,11111222 
ENP,ioos.station.NOAA.NDBC:BOBF1:1,2019-05-10T05:00:00Z,25.0270,-80.6810,1.5,41.11,11111222 
ENP,ioos.station.NOAA.NDBC:BOBF1:1,2019-05-10T06:00:00Z,25.0270,-80.6810,1.5,41.12,11111222 
ENP,ioos.station.NOAA.NDBC:BOBF1:1,2019-05-10T07:00:00Z,25.0270,-80.6810,1.5,41.14,11111222 
ENP,ioos.station.NOAA.NDBC:BOBF1:1,2019-05-10T08:00:00Z,25.0270,-80.6810,1.5,41.2,11111222 
ENP,ioos.station.NOAA.NDBC:BOBF1:1,2019-05-10T09:00:00Z,25.0270,-80.6810,1.5,41.19,11111222 
ENP,ioos.station.NOAA.NDBC:BOBF1:1,2019-05-10T10:00:00Z,25.0270,-80.6810,1.5,41.17,11111222 
ENP,ioos.station.NOAA.NDBC:BOBF1:1,2019-05-10T11:00:00Z,25.0270,-80.6810,1.5,41.16,11111222 
ENP,ioos.station.NOAA.NDBC:BOBF1:1,2019-05-10T12:00:00Z,25.0270,-80.6810,1.5,41.04,11111222 
ENP,ioos.station.NOAA.NDBC:BOBF1:1,2019-05-10T13:00:00Z,25.0270,-80.6810,1.5,39.47,11111222 
ENP,ioos.station.NOAA.NDBC:BOBF1:1,2019-05-10T14:00:00Z,25.0270,-80.6810,1.5,39.72,11111222 
ENP,ioos.station.NOAA.NDBC:BOBF1:1,2019-05-10T15:00:00Z,25.0270,-80.6810,1.5,40.35,11111222 
ENP,ioos.station.NOAA.NDBC:BOBF1:1,2019-05-10T16:00:00Z,25.0270,-80.6810,1.5,40.27,11111222 
ENP,ioos.station.NOAA.NDBC:BOBF1:1,2019-05-10T17:00:00Z,25.0270,-80.6810,1.5,40.06,11111222 
ENP,ioos.station.NOAA.NDBC:BOBF1:1,2019-05-10T18:00:00Z,25.0270,-80.6810,1.5,40.42,11111222 
ENP,ioos.station.NOAA.NDBC:BOBF1:1,2019-05-10T19:00:00Z,25.0270,-80.6810,1.5,40.58,11111222 
ENP,ioos.station.NOAA.NDBC:BOBF1:1,2019-05-10T20:00:00Z,25.0270,-80.6810,1.5,40.87,11111222 
ENP,ioos.station.NOAA.NDBC:BOBF1:1,2019-05-10T21:00:00Z,25.0270,-80.6810,1.5,40.93,11111222 
ENP,ioos.station.NOAA.NDBC:BOBF1:1,2019-05-10T22:00:00Z,25.0270,-80.6810,1.5,40.98,11111222 
ENP,ioos.station.NOAA.NDBC:BOBF1:1,2019-05-10T23:00:00Z,25.0270,-80.6810,1.5,40.99,11111222 
ENP,ioos.station.NOAA.NDBC:BOBF1:1,2019-05-11T00:00:00Z,25.0270,-80.6810,1.5,41.02,11111222 
ENP,ioos.station.NOAA.NDBC:BOBF1:1,2019-05-11T02:00:00Z,25.0270,-80.6810,1.5,40.95,11111222 
ENP,ioos.station.NOAA.NDBC:BOBF1:1,2019-05-11T04:00:00Z,25.0270,-80.6810,1.5,40.67,11111222 
ENP,ioos.station.NOAA.NDBC:BOBF1:1,2019-05-11T05:00:00Z,25.0270,-80.6810,1.5,40.67,11111222 
ENP,ioos.station.NOAA.NDBC:BOBF1:1,2019-05-11T06:00:00Z,25.0270,-80.6810,1.5,40.65,11111222 
ENP,ioos.station.NOAA.NDBC:BOBF1:1,2019-05-11T07:00:00Z,25.0270,-80.6810,1.5,40.62,11111222 
ENP,ioos.station.NOAA.NDBC:BOBF1:1,2019-05-11T08:00:00Z,25.0270,-80.6810,1.5,40.59,11111222 
ENP,ioos.station.NOAA.NDBC:BOBF1:1,2019-05-11T09:00:00Z,25.0270,-80.6810,1.5,40.7,11111222 
ENP,ioos.station.NOAA.NDBC:BOBF1:1,2019-05-11T10:00:00Z,25.0270,-80.6810,1.5,40.68,11111222 
ENP,ioos.station.NOAA.NDBC:BOBF1:1,2019-05-11T11:00:00Z,25.0270,-80.6810,1.5,40.83,11111222 
ENP,ioos.station.NOAA.NDBC:BOBF1:1,2019-05-11T12:00:00Z,25.0270,-80.6810,1.5,40.75,11111222 
ENP,ioos.station.NOAA.NDBC:BOBF1:1,2019-05-13T13:00:00Z,25.0270,-80.6810,1.5,41.29,11111222 
ENP,ioos.station.NOAA.NDBC:BOBF1:1,2019-05-13T14:00:00Z,25.0270,-80.6810,1.5,41.29,11111222 
ENP,ioos.station.NOAA.NDBC:BOBF1:1,2019-05-13T15:00:00Z,25.0270,-80.6810,1.5,41.23,11111222 
ENP,ioos.station.NOAA.NDBC:BOBF1:1,2019-05-13T16:00:00Z,25.0270,-80.6810,1.5,41.18,11111222 
ENP,ioos.station.NOAA.NDBC:BOBF1:1,2019-05-13T17:00:00Z,25.0270,-80.6810,1.5,41.15,11111222 
ENP,ioos.station.NOAA.NDBC:BOBF1:1,2019-05-13T18:00:00Z,25.0270,-80.6810,1.5,41.13,11111222 
ENP,ioos.station.NOAA.NDBC:BOBF1:1,2019-05-13T19:00:00Z,25.0270,-80.6810,1.5,41.08,11111222 
ENP,ioos.station.NOAA.NDBC:BOBF1:1,2019-05-13T20:00:00Z,25.0270,-80.6810,1.5,41.15,11111222 
ENP,ioos.station.NOAA.NDBC:BOBF1:1,2019-05-13T21:00:00Z,25.0270,-80.6810,1.5,41.15,11111222 
ENP,ioos.station.NOAA.NDBC:BOBF1:1,2019-05-13T23:00:00Z,25.0270,-80.6810,1.5,41.41,11111222 
ENP,ioos.station.NOAA.NDBC:BOBF1:1,2019-05-14T00:00:00Z,25.0270,-80.6810,1.5,41.67,11111222 
ENP,ioos.station.NOAA.NDBC:BOBF1:1,2019-05-14T01:00:00Z,25.0270,-80.6810,1.5,41.73,11111222 
ENP,ioos.station.NOAA.NDBC:BOBF1:1,2019-05-14T02:00:00Z,25.0270,-80.6810,1.5,41.7,11111222 
ENP,ioos.station.NOAA.NDBC:BOBF1:1,2019-05-14T04:00:00Z,25.0270,-80.6810,1.5,41.93,11111222 
ENP,ioos.station.NOAA.NDBC:BOBF1:1,2019-05-14T05:00:00Z,25.0270,-80.6810,1.5,42.05,11111222 
ENP,ioos.station.NOAA.NDBC:BOBF1:1,2019-05-14T06:00:00Z,25.0270,-80.6810,1.5,42.03,11111222 
ENP,ioos.station.NOAA.NDBC:BOBF1:1,2019-05-14T07:00:00Z,25.0270,-80.6810,1.5,41.84,11111222 
ENP,ioos.station.NOAA.NDBC:BOBF1:1,2019-05-14T08:00:00Z,25.0270,-80.6810,1.5,41.85,11111222 
ENP,ioos.station.NOAA.NDBC:BOBF1:1,2019-05-14T09:00:00Z,25.0270,-80.6810,1.5,42.01,11111222 
ENP,ioos.station.NOAA.NDBC:BOBF1:1,2019-05-14T10:00:00Z,25.0270,-80.6810,1.5,42.15,11111222 
ENP,ioos.station.NOAA.NDBC:BOBF1:1,2019-05-14T11:00:00Z,25.0270,-80.6810,1.5,42.01,11111222 
ENP,ioos.station.NOAA.NDBC:BOBF1:1,2019-05-14T12:00:00Z,25.0270,-80.6810,1.5,41.91,11111222 
ENP,ioos.station.NOAA.NDBC:BOBF1:1,2019-05-14T13:00:00Z,25.0270,-80.6810,1.5,41.86,11111222 
ENP,ioos.station.NOAA.NDBC:BOBF1:1,2019-05-14T14:00:00Z,25.0270,-80.6810,1.5,41.81,11111222 
ENP,ioos.station.NOAA.NDBC:BOBF1:1,2019-05-14T15:00:00Z,25.0270,-80.6810,1.5,41.89,11111222 
ENP,ioos.station.NOAA.NDBC:BOBF1:1,2019-05-14T16:00:00Z,25.0270,-80.6810,1.5,41.93,11111222 
ENP,ioos.station.NOAA.NDBC:BOBF1:1,2019-05-14T17:00:00Z,25.0270,-80.6810,1.5,41.9,11111222 
ENP,ioos.station.NOAA.NDBC:BOBF1:1,2019-05-14T18:00:00Z,25.0270,-80.6810,1.5,41.61,11111222 
ENP,ioos.station.NOAA.NDBC:BOBF1:1,2019-05-14T19:00:00Z,25.0270,-80.6810,1.5,41.55,11111222 
ENP,ioos.station.NOAA.NDBC:BOBF1:1,2019-05-14T20:00:00Z,25.0270,-80.6810,1.5,41.53,11111222 
ENP,ioos.station.NOAA.NDBC:BOBF1:1,2019-05-14T21:00:00Z,25.0270,-80.6810,1.5,41.54,11111222 
ENP,ioos.station.NOAA.NDBC:BOBF1:1,2019-05-14T22:00:00Z,25.0270,-80.6810,1.5,41.58,11111222 
ENP,ioos.station.NOAA.NDBC:BOBF1:1,2019-05-14T23:00:00Z,25.0270,-80.6810,1.5,41.41,11111222 
ENP,ioos.station.NOAA.NDBC:BOBF1:1,2019-05-15T00:00:00Z,25.0270,-80.6810,1.5,41.45,11111222 
ENP,ioos.station.NOAA.NDBC:BOBF1:1,2019-05-15T01:00:00Z,25.0270,-80.6810,1.5,41.44,11111222 
ENP,ioos.station.NOAA.NDBC:BOBF1:1,2019-05-15T02:00:00Z,25.0270,-80.6810,1.5,41.48,11111222 
ENP,ioos.station.NOAA.NDBC:BOBF1:1,2019-05-15T04:00:00Z,25.0270,-80.6810,1.5,41.6,11111222 
ENP,ioos.station.NOAA.NDBC:BOBF1:1,2019-05-15T05:00:00Z,25.0270,-80.6810,1.5,41.54,11111222 